Hourly Weather Roundup
Issued by NWS Central Illinois

Home | Current Version | Previous Version | Text Only | Print | Product List | Glossary On
Versions: 1 2 3 4 5 6 7 8 9 10 11 12 13 14 15 16 17 18 19 20 21 22 23 24 25 26 27 28 29 30 31 32 33 34 35 36 37 38 39 40 41 42 43 44 45 46 47 48 49 50
000
NZUS43 KILX 261310
HWRILX

AREA WEATHER ROUNDUP
NATIONAL WEATHER SERVICE, LINCOLN IL
800 AM CDT THU MAY 26 2016


CITY           SKY/WX    TMP DP  RH WIND       PRES   REMARKS
BLOOMINGTON    TSTM      67  67 100 VRB5      30.01R
CHAMPAIGN      CLOUDY    71  66  84 S12       29.98R
DANVILLE       CLOUDY    70  66  87 S9        29.97S
DECATUR        TSTM      66  63  90 N12       30.02R FOG
EFFINGHAM      CLOUDY    72  68  89 S5        29.99S
FLORA          PTSUNNY   72  65  80 S7        30.00R
GALESBURG      CLOUDY    67  64  91 S3        29.91F
JACKSONVILLE   CLOUDY    67  65  93 SE3       29.96S
LACON          LGT RAIN  64  62  91 SE6       29.91F
LAWRENCEVILLE  SUNNY     71  64  78 S10       30.02S
LITCHFIELD     TSTM      67  64  91 NW13      30.03R
$$


CITY           SKY/WX    TMP DP  RH WIND       PRES   REMARKS
LINCOLN        TSTM      66  65  99 SE5       30.00S
MACOMB         CLOUDY    65  64  97 S7        29.93F
MATTOON        CLOUDY    70  64  81 S14       29.98R
MT CARMEL AP   MOSUNNY   72  63  73 S9        30.01R
OLNEY-NOBLE AP PTSUNNY   70  64  83 S8        30.01R
PARIS          PTSUNNY   72  67  83 S6        30.00F
PEORIA         LGT RAIN  66  64  93 SE5       29.91F
PONTIAC        TSTM      70  68  92 W10G16    29.98S
RANTOUL        CLOUDY    72  68  88 S8        29.96F
ROBINSON       MOSUNNY   70  65  84 S7        30.02R
SPRINGFIELD    LGT RAIN  67  64  90 SE5       29.96F
TAYLORVILLE    TSTM      65  63  93 N3        30.01R
$$

...REGIONAL REPORTS...


CITY           SKY/WX    TMP DP  RH WIND       PRES   REMARKS
CHICAGO O`HARE CLOUDY    70  66  87 SW10      29.92S
KANKAKEE       CLOUDY   N/A N/A N/A SW14      29.97R
MOLINE         CLOUDY    67  61  81 CALM      29.90F
MOUNT STERLING DRIZZLE   65  63  95 E14       29.88F
MOUNT VERNON   MOSUNNY   72  63  73 SW8       30.02R
PITTSFIELD     CLOUDY    66  65  96 E7        29.93F
QUINCY         CLOUDY    68  63  84 NE5G22    29.88F
ROCKFORD       TSTM      65  62  90 NW21G37   29.94R FOG
$$


CITY           SKY/WX    TMP DP  RH WIND       PRES   REMARKS
BURLINGTON     CLOUDY    67  65  93 E6        29.90F
CEDAR RAPIDS   PTSUNNY   64  60  87 CALM      29.89R
DES MOINES     MOSUNNY   66  59  78 E5        29.88S
KIRKSVILLE     CLOUDY    70  67  90 NE7       29.92R
OTTUMWA        CLOUDY    64  59  83 E10       29.88S
ST LOUIS       TSTM      67  63  87 N6        30.02S
$$


CITY           SKY/WX    TMP DP  RH WIND       PRES   REMARKS
TERRE HAUTE    MOSUNNY   71  64  78 SW9       30.01R
EVANSVILLE     SUNNY     71  63  75 SW8       30.04R
INDIANAPOLIS   CLOUDY    70  64  81 S9        30.01F
LAFAYETTE      CLOUDY    70  65  84 S8        29.99R
MADISON        LGT RAIN  66  61  84 VRB3      29.84F
MILWAUKEE      PTSUNNY   70  66  87 S10       29.88F
$$






USA.gov is the U.S. government's official web portal to all federal, state and local government web resources and services.